Location: Gorze? G�rny
(49.8500°N, 19.5000°E)
Time: 04:44:36
(UTC+00:00)

Cosmos 2221 Rocket - Pass Details

Date: 13 May 2021
Orbit: 619 x 649 km, 82.5° (Epoch: 20 June)

Event Time Altitude Azimuth Distance (km) Brightness Sun altitude
Exits shadow 23:11:50 57° 193° (SSW) 771 3.6 -21.1°
Maximum altitude 23:12:47 88° 280° (W) 657 3.6 -21.1°
Drops below altitude 10° 23:17:22 10° 10° (N) 2,062 7.4 -21.0°
Sets 23:19:38 0° 10° (N) 2,974 8.7 -20.9°
